Showing default

NANOFF A, 58810

Orbit data source: Space-Track

NANOFF A, 58810 is a payload satellite owned by TUB (DE) in SSO that was launched on Fri, 01 Dec 2023 UTC via an FALCON 9 launch vehicle from the Air Force Western Test Range (AFWTR). Payload-class satellites include a variety of spacecraft equipped with specific instruments for various scientific and technological missions. These include communications satellites like Starlink; space stations such as the ISS; scientific satellites like the Hubble; Earth observation satellites from companies like Planet Labs, Umbra, and HawkEye 360; GPS; miniature CubeSats for education and research; and military/defense satellites.

Loading next visibility...
Identifier
58810, 2023-185T
Orbit
SSO
Country
Flag of DEDE / GER
Related business
Manufacturer
TUB
Mission
Operational Amateur Technology
Bus & Motor
CUBESAT 2U, Unknown motor
Mass
2.7 kg wet, 2.7 kg dry
Launch date (UTC)
2023-12-01 (3 years ago)
Launch vehicle
FALCON 9
Launch site
Air Force Western Test Range (AFWTR)
Object type
Payload
Rocket body
Debris
Shape & HBR
Box + 2 Pan, 0.3 m
Radar Cross Section
0.046 m², Medium (>0.1 m² and < 1m²)

Expand to show TLE details & history
Last TLE update: 6 hours ago

TLE from 6 hours ago
0 NANOFF A
1 58810U 23185T   26222.83747286  .00001668  00000-0  99111-4 0  9996
2 58810  97.5225 289.5148 0011532 116.6378 243.6036 15.12606779141302
Epoch: 2026-08-10T20:05Z
TLE epoch observation values (Epoch: 2026-08-10T20:05:57.655Z)
Latitude
0.00007°
Longitude
28.71018°
Altitude
534.88 km
Speed
7.593 km/s
True Right ascension
19h 18m 03s
True Declination
0° 00' 00"
Sunlit
Object was in full shadow at epoch
Visualization orbit readout
Latitude
Unknown
Longitude
Unknown
Altitude
Unknown
Speed
Unknown
Apparent Right ascension
Unknown
Apparent Declination
Unknown
Sunlit
N/A
Visualization observer readout
Local Sidereal Time
16:08:38
Azimuth
Unknown
Elevation
Unknown
Doppler factor
Unknown
Orbital elements
Apogee altitude
533.195 km
Perigee altitude
517.273 km
Semi-major axis
6,903.371 km
Eccentricity
0.00115
Inclination
97.5225°
RAAN
289.5148°
Arg. of periapsis
116.6378°
True anomaly
243.48531°
Mean anomaly
243.6036°
Eccentric anomaly
243.54445°
Mean motion
3.784 °/min
Orbital period
95.14 mins
BSTAR
0.000099111
Loading maneuver chart data...
Computing Atmospheric mass density...
Loading historical data...
Loading historical data...
Loading historical data...
Loading historical data...
Loading historical data...
Loading historical data...
Loading historical data...

Documentation

Showing up to 5 results
|